Torna al catalogo

STARLINK-37184

AttivoComunicazioniSSO
NORAD 68393·PAYLOAD·🇺🇸 United States

Lanciato Mar 26, 2026 da Vandenberg Space Force Base

Loading…

Prossimi Passaggi (prossime 24 ore)

TLE

AggiornatoSource: CelesTrak SupGP

Epoca: Sep 14, 2026, 16:15 UTC

1 68393C 26063P   26257.67756944  .00033185  00000+0  10304-2 0  2572
2 68393  97.2860  38.6472 0001380  95.7836  65.5262 15.33415278    19

Traccia STARLINK-37184 in tempo reale con AllMySat

Download on the App Store